sat.trackr.live / text

‹ back to catalog

ONEWEB-0658

NORAD 55819 · 2023-029Z

PAYLOAD ACTIVE UNKNOWN

§ Identity

Operator
Country
UK
Launch date
2023-03-09
Launch site
AFETR
Launch vehicle
Mass (kg)
RCS (m²)

Purposes: comms

External: N2YO · Heavens-Above · Gunter

§ Orbital elements

Epoch: 2026-09-20T01:36:02.498112Z

Period
109.11 min
Inclination
87.9112°
Eccentricity
0.0001627
Mean motion
13.19725574 rev/d
Perigee alt
1,184.5 km
Apogee alt
1,187.0 km
Semi-major
7,563.9 km
B*
2.7301e-5
RAAN
286.0523°
Arg perigee
81.8789°
Mean anomaly
278.2529°
Rev number
17,143

§ Raw data

ONEWEB-06581 55819U 23029Z   26263.06669558  .00000024  00000+0  27301-4 0  99902 55819  87.9112 286.0523 0001627  81.8789 278.2529 13.19725574171436

JSON: /api/v1/satellites/55819 · /tle

For live sub-satellite position, see the globe view (requires WebGL).

§ Visibility from observer

Set your observer location to see the next 7 days of passes ≥ 10°. The values pass through the URL so the page stays shareable.

No JS? Fill the form by hand. The geolocation button needs JavaScript.